Time,TemperatureF,DewpointF,PressureIn,WindDirection,WindDirectionDegrees,WindSpeedMPH,WindSpeedGustMPH,Humidity,HourlyPrecipIn,Conditions,Clouds,dailyrainin,SolarRadiationWatts/m^2,SoftwareType,DateUTC
2013-05-10 00:02:00,35.0,32.0,-100.00,North,8,5.0,11.0,90,0.00,,,0.43,0.000000,,2013-05-10 05:02:00,
2013-05-10 00:10:00,35.0,30.0,-100.00,NNE,12,5.0,12.0,83,0.00,,,0.43,0.000000,,2013-05-10 05:10:00,
2013-05-10 00:42:00,35.0,30.0,-100.00,NNE,12,5.0,12.0,83,0.00,,,0.43,0.000000,,2013-05-10 05:42:00,
2013-05-10 00:52:00,35.0,30.0,-100.00,NNE,12,5.0,12.0,83,0.00,,,0.43,0.000000,,2013-05-10 05:52:00,
2013-05-10 01:01:00,35.0,30.0,-100.00,NNE,12,5.0,12.0,83,0.00,,,0.43,0.000000,,2013-05-10 06:01:00,
2013-05-10 01:10:00,36.0,30.0,-100.00,NNE,23,5.0,11.0,79,0.00,,,0.43,0.000000,,2013-05-10 06:10:00,
2013-05-10 01:42:00,36.0,30.0,-100.00,NNE,23,5.0,11.0,79,0.00,,,0.43,0.000000,,2013-05-10 06:42:00,
2013-05-10 01:52:00,36.0,30.0,-100.00,NNE,23,5.0,11.0,79,0.00,,,0.43,0.000000,,2013-05-10 06:52:00,
2013-05-10 02:02:00,36.0,30.0,-100.00,NNE,23,5.0,11.0,79,0.00,,,0.43,0.000000,,2013-05-10 07:02:00,
2013-05-10 03:10:00,34.0,27.0,-100.00,North,4,6.0,14.0,75,-99.99,,,0.43,0.000000,,2013-05-10 08:10:00,
2013-05-10 03:42:00,34.0,27.0,-100.00,North,4,6.0,14.0,75,-99.99,,,0.43,0.000000,,2013-05-10 08:42:00,
2013-05-10 03:52:00,34.0,27.0,-100.00,North,4,6.0,14.0,75,-99.99,,,0.43,0.000000,,2013-05-10 08:52:00,
2013-05-10 04:01:00,34.0,27.0,-100.00,North,4,6.0,14.0,75,-99.99,,,0.43,0.000000,,2013-05-10 09:01:00,
2013-05-10 04:10:00,33.0,27.0,-100.00,North,0,5.0,11.0,79,0.00,,,0.43,0.000000,,2013-05-10 09:10:00,
2013-05-10 04:33:00,33.0,27.0,-100.00,North,0,5.0,11.0,79,0.00,,,0.43,0.000000,,2013-05-10 09:33:00,
2013-05-10 04:43:00,33.0,27.0,-100.00,North,0,5.0,11.0,79,0.00,,,0.43,0.000000,,2013-05-10 09:43:00,
2013-05-10 04:52:00,33.0,27.0,-100.00,North,0,5.0,11.0,79,0.00,,,0.43,0.000000,,2013-05-10 09:52:00,
2013-05-10 05:03:00,33.0,27.0,-100.00,North,0,5.0,11.0,79,0.00,,,0.43,0.000000,,2013-05-10 10:03:00,
2013-05-10 05:10:00,31.0,26.0,-100.00,North,6,6.0,14.0,81,0.00,,,0.43,0.000000,,2013-05-10 10:10:00,
2013-05-10 05:33:00,31.0,26.0,-100.00,North,6,6.0,14.0,81,0.00,,,0.43,0.000000,,2013-05-10 10:33:00,
2013-05-10 05:42:00,31.0,26.0,-100.00,North,6,6.0,14.0,81,0.00,,,0.43,0.000000,,2013-05-10 10:42:00,
2013-05-10 05:53:00,31.0,26.0,-100.00,North,6,6.0,14.0,81,0.00,,,0.43,0.000000,,2013-05-10 10:53:00,
2013-05-10 06:02:00,31.0,26.0,-100.00,North,6,6.0,14.0,81,0.00,,,0.43,0.000000,,2013-05-10 11:02:00,
2013-05-10 08:10:00,34.0,27.0,-100.00,NNE,15,5.0,12.0,76,-99.99,,,0.43,32.000000,,2013-05-10 13:10:00,
2013-05-10 08:42:00,34.0,27.0,-100.00,NNE,15,5.0,12.0,76,-99.99,,,0.43,32.000000,,2013-05-10 13:42:00,
2013-05-10 08:52:00,34.0,27.0,-100.00,NNE,15,5.0,12.0,76,-99.99,,,0.43,32.000000,,2013-05-10 13:52:00,
2013-05-10 09:02:00,34.0,27.0,-100.00,NNE,15,5.0,12.0,76,-99.99,,,0.43,32.000000,,2013-05-10 14:02:00,
2013-05-10 09:10:00,-999.0,-99.9,-100.00,NNE,15,4.0,11.0,64,0.00,,,0.43,411.000000,,2013-05-10 14:10:00,
2013-05-10 09:42:00,39.0,28.0,-100.00,NNE,15,4.0,11.0,64,0.00,,,0.43,411.000000,,2013-05-10 14:42:00,
2013-05-10 09:52:00,39.0,28.0,-100.00,NNE,15,4.0,11.0,64,0.00,,,0.43,411.000000,,2013-05-10 14:52:00,
2013-05-10 10:02:00,39.0,28.0,-100.00,NNE,15,4.0,11.0,64,0.00,,,0.43,411.000000,,2013-05-10 15:02:00,
2013-05-10 11:10:00,49.0,26.0,-100.00,NNE,33,5.0,11.0,40,-99.99,,,0.43,756.000000,,2013-05-10 16:10:00,
2013-05-10 11:43:00,49.0,26.0,-100.00,NNE,33,5.0,11.0,40,-99.99,,,0.43,756.000000,,2013-05-10 16:43:00,
2013-05-10 11:53:00,49.0,26.0,-100.00,NNE,33,5.0,11.0,40,-99.99,,,0.43,756.000000,,2013-05-10 16:53:00,
2013-05-10 12:02:00,49.0,26.0,-100.00,NNE,33,5.0,11.0,40,-99.99,,,0.43,756.000000,,2013-05-10 17:02:00,
2013-05-10 12:10:00,-999.0,-99.9,-100.00,North,4,5.0,10.0,34,0.00,,,0.43,898.000000,,2013-05-10 17:10:00,
2013-05-10 12:42:00,52.0,25.0,-100.00,North,4,5.0,10.0,34,0.00,,,0.43,898.000000,,2013-05-10 17:42:00,
2013-05-10 12:52:00,52.0,25.0,-100.00,North,4,5.0,10.0,34,0.00,,,0.43,898.000000,,2013-05-10 17:52:00,
2013-05-10 13:10:00,55.0,26.0,-100.00,NNE,18,6.0,11.0,33,0.00,,,0.43,932.000000,,2013-05-10 18:10:00,
2013-05-10 13:43:00,55.0,26.0,-100.00,NNE,18,6.0,11.0,33,0.00,,,0.43,932.000000,,2013-05-10 18:43:00,
2013-05-10 13:54:00,55.0,26.0,-100.00,NNE,18,6.0,11.0,33,0.00,,,0.43,932.000000,,2013-05-10 18:54:00,
2013-05-10 14:02:00,55.0,26.0,-100.00,NNE,18,6.0,11.0,33,0.00,,,0.43,932.000000,,2013-05-10 19:02:00,
2013-05-10 14:10:00,58.0,24.0,-100.00,North,356,4.0,10.0,27,0.00,,,-99.99,895.000000,,2013-05-10 19:10:00,
2013-05-10 14:42:00,58.0,24.0,-100.00,North,356,4.0,10.0,27,0.00,,,-99.99,895.000000,,2013-05-10 19:42:00,
2013-05-10 14:52:00,58.0,24.0,-100.00,North,356,4.0,10.0,27,0.00,,,-99.99,895.000000,,2013-05-10 19:52:00,
2013-05-10 15:01:00,58.0,24.0,-100.00,North,356,4.0,10.0,27,0.00,,,-99.99,895.000000,,2013-05-10 20:01:00,
2013-05-10 15:10:00,61.0,28.0,-100.00,ENE,59,4.0,14.0,28,0.00,,,0.39,818.000000,,2013-05-10 20:10:00,
2013-05-10 15:42:00,61.0,28.0,-100.00,ENE,59,4.0,14.0,28,0.00,,,0.39,818.000000,,2013-05-10 20:42:00,
2013-05-10 15:52:00,61.0,28.0,-100.00,ENE,59,4.0,14.0,28,0.00,,,0.39,818.000000,,2013-05-10 20:52:00,
2013-05-10 16:02:00,61.0,28.0,-100.00,ENE,59,4.0,14.0,28,0.00,,,0.39,818.000000,,2013-05-10 21:02:00,
2013-05-10 17:10:00,63.0,22.0,-100.00,NW,311,4.0,9.0,21,-99.99,,,0.20,547.000000,,2013-05-10 22:10:00,
2013-05-10 17:42:00,63.0,22.0,-100.00,NW,311,4.0,9.0,21,-99.99,,,0.20,547.000000,,2013-05-10 22:42:00,
2013-05-10 17:52:00,63.0,22.0,-100.00,NW,311,4.0,9.0,21,-99.99,,,0.20,547.000000,,2013-05-10 22:52:00,
2013-05-10 18:02:00,63.0,22.0,-100.00,NW,311,4.0,9.0,21,-99.99,,,0.20,547.000000,,2013-05-10 23:02:00,
2013-05-10 18:10:00,62.0,20.0,-100.00,WNW,282,3.0,9.0,20,0.00,,,0.12,379.000000,,2013-05-10 23:10:00,
2013-05-10 18:33:00,62.0,20.0,-100.00,WNW,282,3.0,9.0,20,0.00,,,0.12,379.000000,,2013-05-10 23:33:00,
2013-05-10 18:42:00,62.0,20.0,-100.00,WNW,282,3.0,9.0,20,0.00,,,0.12,379.000000,,2013-05-10 23:42:00,
2013-05-10 18:52:00,62.0,20.0,-100.00,WNW,282,3.0,9.0,20,0.00,,,0.12,379.000000,,2013-05-10 23:52:00,
2013-05-10 19:02:00,62.0,20.0,-100.00,WNW,282,3.0,9.0,20,0.00,,,0.12,379.000000,,2013-05-11 00:02:00,
2013-05-10 20:10:00,49.0,27.0,-100.00,NNW,336,0.0,5.0,43,-99.99,,,0.02,21.000000,,2013-05-11 01:10:00,
2013-05-10 20:32:00,49.0,27.0,-100.00,NNW,336,0.0,5.0,43,-99.99,,,0.02,21.000000,,2013-05-11 01:32:00,
2013-05-10 20:42:00,49.0,27.0,-100.00,NNW,336,0.0,5.0,43,-99.99,,,0.02,21.000000,,2013-05-11 01:42:00,
2013-05-10 20:52:00,49.0,27.0,-100.00,NNW,336,0.0,5.0,43,-99.99,,,0.02,21.000000,,2013-05-11 01:52:00,
2013-05-10 21:02:00,49.0,27.0,-100.00,NNW,336,0.0,5.0,43,-99.99,,,0.02,21.000000,,2013-05-11 02:02:00,
2013-05-10 21:10:00,44.0,32.0,-100.00,NNW,331,4.0,8.0,63,0.00,,,0.01,1.000000,,2013-05-11 02:10:00,
2013-05-10 21:42:00,44.0,32.0,-100.00,NNW,331,4.0,8.0,63,0.00,,,0.01,1.000000,,2013-05-11 02:42:00,
2013-05-10 21:52:00,44.0,32.0,-100.00,NNW,331,4.0,8.0,63,0.00,,,0.01,1.000000,,2013-05-11 02:52:00,
2013-05-10 22:01:00,44.0,32.0,-100.00,NNW,331,4.0,8.0,63,0.00,,,0.01,1.000000,,2013-05-11 03:01:00,
2013-05-10 22:10:00,42.0,32.0,-100.00,NW,321,1.0,5.0,67,0.00,,,0.00,0.000000,,2013-05-11 03:10:00,
2013-05-10 22:43:00,42.0,32.0,-100.00,NW,321,1.0,5.0,67,0.00,,,0.00,0.000000,,2013-05-11 03:43:00,
2013-05-10 22:53:00,42.0,32.0,-100.00,NW,321,1.0,5.0,67,0.00,,,0.00,0.000000,,2013-05-11 03:53:00,
2013-05-10 23:02:00,42.0,32.0,-100.00,NW,321,1.0,5.0,67,0.00,,,0.00,0.000000,,2013-05-11 04:02:00,
2013-05-10 23:10:00,42.0,34.0,-100.00,East,88,2.0,5.0,72,0.00,,,0.00,0.000000,,2013-05-11 04:10:00,
2013-05-10 23:43:00,42.0,34.0,-100.00,East,88,2.0,5.0,72,0.00,,,0.00,0.000000,,2013-05-11 04:43:00,
2013-05-10 23:52:00,42.0,34.0,-100.00,East,88,2.0,5.0,72,0.00,,,0.00,0.000000,,2013-05-11 04:52:00,